Regional Weather Roundup
Issued by NWS

Home | Current Version | Previous Version | Graphics & Text | Print | Product List | Glossary On
Versions: 1 2 3 4 5 6 7 8 9 10 11 12 13 14 15 16 17 18 19 20 21 22 23 24 25 26 27
000
ASUS45 KBOU 280707
RWRCO

WEATHER ROUNDUP FOR COLORADO
NATIONAL WEATHER SERVICE DENVER/BOULDER CO
100 AM MDT THU JUL 28 2016

NOTE: "FAIR" INDICATES FEW OR NO CLOUDS BELOW 12000 FEET WITH NO
SIGNIFICANT WEATHER AND/OR OBSTRUCTIONS TO VISIBILITY.

COZ001>005-013-030-031-280800-
...NORTHWEST COLORADO...

CITY           SKY/WX    TMP DP  RH WIND       PRES   REMARKS
CRAIG          FAIR      51  37  58 SE3       30.23S
HAYDEN         FAIR      61  27  27 E5        30.26R
MEEKER         FAIR      60  36  40 VRB3      30.26R
MOUNT WERNER   NOT AVBL
STEAMBOAT SPGS FAIR      56  31  38 CALM      30.28S
WALDEN         FAIR      48  30  49 E5        30.39R
$$

COZ006>008-011-280800-
...WEST CENTRAL VALLEYS...

CITY           SKY/WX    TMP DP  RH WIND       PRES   REMARKS
GRAND JUNCTION FAIR      75  32  20 SE12      30.09R
MONTROSE       FAIR      70  36  28 SE13      30.20R
EAGLE          FAIR      61  28  29 CALM      30.29S
RIFLE          FAIR      66  37  34 N5        30.18R
DELTA          NOT AVBL
NUCLA          NOT AVBL
$$

COZ017>023-064>068-280800-
...SOUTHWEST COLORADO...

CITY           SKY/WX    TMP DP  RH WIND       PRES   REMARKS
DURANGO        FAIR      61  29  29 E10       30.25R
CORTEZ         FAIR      62  39  42 E3        30.19S
PAGOSA SPRINGS FAIR      60  31  33 CALM      30.36R
TELLURIDE      NOT AVBL
WOLF CREEK PAS FAIR      54  28  37 NE20      30.74S
$$

COZ009-010-012-014-032>034-037-058>063-280800-
...CENTRAL COLORADO...

CITY           SKY/WX    TMP DP  RH WIND       PRES   REMARKS
ASPEN          FAIR      58  34  40 SW8       30.36F
BUENA VISTA    FAIR      58  28  31 W7        30.41S
COPPER MTN     FAIR      59  10  14 W6        30.73F
BERTHOUD PASS  FAIR      46  32  57 W3        30.75F
COTTONWOOD PAS FAIR      64  25  22 CALM      30.56S
GUNNISON       FAIR      55  36  47 NE5       30.41R
KREMMLING      FAIR      50  34  53 CALM      30.36S
LEADVILLE      FAIR      45  22  40 CALM      30.54F
MONARCH PASS   FAIR      52  34  50 MISG      30.83S
SALIDA         FAIR      63  40  43 W7        30.45R
SUNLIGHT       NOT AVBL
WILKERSON PASS FAIR      54  37  54 S7        30.69F
$$

COZ069>075-280800-
...SAN LUIS VALLEY/SANGRE DE CRISTO MOUNTAINS...

CITY           SKY/WX    TMP DP  RH WIND       PRES   REMARKS
ALAMOSA        MOCLDY    61  44  53 SE6       30.35R
LA VETA PASS   FAIR      59  41  51 S6        30.58R
SAGUACHE       FAIR      59  34  38 NW10      30.39R
$$

COZ035-036-038>040-280800-
...NORTHERN COLORADO FRONT RANGE...

CITY           SKY/WX    TMP DP  RH WIND       PRES   REMARKS
DENVER INTL AP FAIR      69  55  60 SE15      30.20F
DMNS CITY PARK   N/A     69  56  62 SW3       30.19S
AURORA         PTCLDY    70  57  63 S12       30.22S
FRONT RANGE AP NOT AVBL
ERIE MUNI ARPT FAIR      65  56  72 N7        30.20S
BOULDER MUN AP FAIR      70  54  56 NW5       30.21F
CENTENNIAL     MOCLDY    69  55  60 SW8       30.24R
BROOMFIELD     FAIR      70  54  56 N10       30.23F
LONGMONT       NOT AVBL
$$

COZ041-046-047-076>085-087-088-280800-
...PIKES PEAK/PALMER DIVIDE AND SOUTHERN FOOTHILLS...

CITY           SKY/WX    TMP DP  RH WIND       PRES   REMARKS
COLO. SPRINGS  FAIR      65  54  67 N9        30.28F
A. F. ACADEMY  FAIR      67  54  63 NW5       30.30R
SCHRIEVER AFB  NOT AVBL
ELLICOTT       FAIR     N/A N/A N/A E8        30.25F
FALCON         NOT AVBL
FORT CARSON    FAIR      67  56  67 NE6       30.24F
LIMON          FAIR      63  56  78 E6        30.24R
MONUMENT HILL  FAIR      59  52  77 S3        30.36S
TRINIDAD       NOT AVBL
$$

COZ042>045-048>051-090-091-280800-
...NORTHEAST COLORADO...

CITY           SKY/WX    TMP DP  RH WIND       PRES   REMARKS
GREELEY ARPT   FAIR      66  61  82 E7        30.21S
AKRON          FAIR      64  59  83 E8        30.21S
BURLINGTON     FAIR      63  58  83 SW10      30.17F
WRAY           NOT AVBL
STERLING       NOT AVBL
HOLYOKE        NOT AVBL
FORT MORGAN    NOT AVBL
$$

COZ086-089-092>099-280800-
...SOUTHEAST COLORADO...

CITY           SKY/WX    TMP DP  RH WIND       PRES   REMARKS
PUEBLO         FAIR      74  56  53 E8        30.13F
LA JUNTA       FAIR      71  57  61 E7        30.13R
LAMAR          FAIR      67  63  87 E7        30.12R
SPRINGFIELD      N/A     63  59  87 W7        30.17R
$$




USA.gov is the U.S. government's official web portal to all federal, state and local government web resources and services.